Alderney, United Kingdom

6:23 AM BST on August 30, 2016 (GMT +0100)
Alderney

Weather History for EGJA - January, 2013

Change the Weather History Date:

Thursday, January 17, 2013

  Actual Average Record
Temperature  
Mean Temperature 39 °F -  
Max Temperature 41 °F 45 °F 51 °F (2005)
Min Temperature 37 °F 41 °F 37 °F (2013)
Degree Days  
Heating Degree Days 26    
Moisture  
Dew Point 27 °F    
Average Humidity 59    
Maximum Humidity 65    
Minimum Humidity 52    
Precipitation  
Precipitation 0.00 in - - ()
Sea Level Pressure  
Sea Level Pressure 30.02 in    
Wind  
Wind Speed 11 mph ()    
Max Wind Speed 20 mph    
Max Gust Speed 29 mph    
Visibility 6.2 miles    
Events      
Averages and records for this station are not official NWS values.
T = Trace of Precipitation, MM = Missing Value Source: Averaged Metar Reports

Daily Weather History Graph

Daily Weather History Graph

Search for Another Location

Airport or City:

Trip Planner

Search our weather history database for the weather conditions in past years. The results will help you decide how hot, cold, wet, or windy it might be!

Date:

Astronomy

Jan. 17, 2013 Rise Set
Actual Time 7:58 AM GMT 4:39 PM GMT
Civil Twilight 7:22 AM GMT 5:16 PM GMT
Nautical Twilight 6:42 AM GMT 5:56 PM GMT
Astronomical Twilight 6:03 AM GMT 6:34 PM GMT
Moon 10:17 AM GMT (1/17) No Moon Set
Length of Visible Light 9h 54m
Length of Day
8h 41m
Waxing Crescent, 35% of the Moon is Illuminated
Jan 17
Waxing Crescent
Jan 18
First Quarter
Jan 27
Full
Feb 3
Last Quarter
Feb 10
New

Hourly Weather History & Observations

Time (GMT) Temp. Windchill Dew Point Humidity Pressure Visibility Wind Dir Wind Speed Gust Speed Precip Events Conditions
6:50 AM 37.4 °F 30.8 °F 23.0 °F 56% 30.04 in - SSW 9.2 mph - N/A   Clear
7:20 AM 37.4 °F 32.8 °F 23.0 °F 56% 30.04 in - SSW 5.8 mph - N/A   Clear
7:50 AM 37.4 °F 32.8 °F 23.0 °F 56% 30.04 in - South 5.8 mph - N/A   Clear
8:20 AM 39.2 °F 33.0 °F 23.0 °F 52% 30.04 in - South 9.2 mph - N/A   Clear
8:50 AM 39.2 °F 33.0 °F 23.0 °F 52% 30.06 in 6.2 mi SSW 9.2 mph - N/A   Partly Cloudy
9:20 AM 39.2 °F 33.0 °F 24.8 °F 56% 30.06 in 6.2 mi SSW 9.2 mph - N/A   Partly Cloudy
9:50 AM 41.0 °F 34.3 °F 24.8 °F 53% 30.06 in 6.2 mi South 11.5 mph - N/A   Partly Cloudy
10:20 AM 41.0 °F 34.3 °F 24.8 °F 53% 30.06 in 6.2 mi South 11.5 mph - N/A   Partly Cloudy
10:50 AM 41.0 °F 33.1 °F 26.6 °F 57% 30.04 in 6.2 mi South 15.0 mph - N/A   Partly Cloudy
11:20 AM 41.0 °F 33.5 °F 26.6 °F 57% 30.04 in 6.2 mi South 13.8 mph - N/A   Partly Cloudy
11:50 AM 41.0 °F 33.1 °F 28.4 °F 61% 30.04 in 6.2 mi South 15.0 mph - N/A   Partly Cloudy
12:20 PM 41.0 °F 32.8 °F 28.4 °F 61% 30.04 in 6.2 mi South 16.1 mph - N/A   Partly Cloudy
12:50 PM 41.0 °F 32.5 °F 28.4 °F 61% 30.04 in 6.2 mi South 17.3 mph - N/A   Partly Cloudy
1:20 PM 41.0 °F 33.1 °F 26.6 °F 57% 30.01 in 6.2 mi South 15.0 mph - N/A   Partly Cloudy
1:50 PM 41.0 °F 32.8 °F 28.4 °F 61% 30.01 in 6.2 mi South 16.1 mph - N/A   Partly Cloudy
2:20 PM 41.0 °F 32.5 °F 28.4 °F 61% 30.01 in 6.2 mi South 17.3 mph - N/A   Partly Cloudy
2:50 PM 41.0 °F 32.8 °F 28.4 °F 61% 29.98 in 6.2 mi South 16.1 mph 28.8 mph N/A   Partly Cloudy
3:20 PM 41.0 °F 32.5 °F 28.4 °F 61% 29.98 in 6.2 mi South 17.3 mph - N/A   Partly Cloudy
3:50 PM 39.2 °F 30.5 °F 28.4 °F 65% 29.98 in 6.2 mi South 16.1 mph - N/A   Partly Cloudy
4:20 PM 39.2 °F 30.8 °F 28.4 °F 65% 29.98 in 6.2 mi South 15.0 mph - N/A   Partly Cloudy
4:50 PM 39.2 °F 30.5 °F 28.4 °F 65% 29.98 in 6.2 mi South 16.1 mph - N/A   Partly Cloudy
5:20 PM 39.2 °F 30.2 °F 28.4 °F 65% 29.95 in 6.2 mi South 17.3 mph - N/A   Partly Cloudy
5:50 PM 39.2 °F 30.2 °F 26.6 °F 61% 29.95 in 6.2 mi South 17.3 mph - N/A   Partly Cloudy
6:20 PM 39.2 °F 29.6 °F 28.4 °F 65% 29.95 in 6.2 mi South 19.6 mph - N/A   Partly Cloudy